This is the latest recevied weather packets stored in our database for station/object N3WXO-1. If no packets are shown the sender has not sent any weather packets the latest 10 day(s).
| Time | Temp. | Humidity | Pressure | Rain* | Wind** | Luminosity | Snow |
|---|---|---|---|---|---|---|---|
| 1778181935 | 17.78° C | 38% | 1008.3 hPa | 0 mm | - | 849 W/m² | - |
| 1778181627 | 17.78° C | 42% | 1008.5 hPa | 0 mm | - | 798 W/m² | - |
| 1778181319 | 17.78° C | 41% | 1008.5 hPa | 0 mm | - | 812 W/m² | - |
| 1778181020 | 17.78° C | 42% | 1008.7 hPa | 0 mm | - | 181 W/m² | - |
| 1778180730 | 17.78° C | 42% | 1008.7 hPa | 0 mm | - | 819 W/m² | - |
| 1778180431 | 18.33° C | 40% | 1008.6 hPa | 0 mm | - | 155 W/m² | - |
| 1778180123 | 18.33° C | 41% | 1008.9 hPa | 0 mm | - | 840 W/m² | - |
| 1778179816 | 17.78° C | 42% | 1008.8 hPa | 0 mm | - | 863 W/m² | - |
| 1778179530 | 17.78° C | 41% | 1008.8 hPa | 0 mm | - | 232 W/m² | - |
| 1778179224 | 17.78° C | 41% | 1008.9 hPa | 0 mm | - | 810 W/m² | - |
| 1778178914 | 17.78° C | 43% | 1009.1 hPa | 0 mm | - | 860 W/m² | - |
| 1778178626 | 17.78° C | 42% | 1009 hPa | 0 mm | - | 956 W/m² | - |
| 1778178314 | 17.78° C | 43% | 1009 hPa | 0 mm | - | 954 W/m² | - |
| 1778178030 | 17.78° C | 45% | 1009.1 hPa | 0 mm | - | 900 W/m² | - |
| 1778177716 | 17.78° C | 45% | 1009.2 hPa | 0 mm | - | 863 W/m² | - |
| 1778177428 | 17.78° C | 41% | 1009.4 hPa | 0 mm | - | 872 W/m² | - |
| 1778177119 | 17.78° C | 42% | 1009.2 hPa | 0 mm | - | 888 W/m² | - |
| 1778176831 | 17.78° C | 45% | 1009.4 hPa | 0 mm | - | 911 W/m² | - |
| 1778176518 | 17.22° C | 45% | 1009.5 hPa | 0 mm | - | 995 W/m² | - |
| 1778176217 | 17.22° C | 44% | 1009.5 hPa | 0 mm | - | 939 W/m² | - |
| 1778175924 | 17.22° C | 39% | 1009.5 hPa | 0 mm | - | 907 W/m² | - |
| 1778175638 | 17.22° C | 40% | 1009.6 hPa | 0 mm | - | 200 W/m² | - |
| 1778175317 | 17.22° C | 46% | 1009.8 hPa | 0 mm | - | 946 W/m² | - |
| 1778175025 | 17.22° C | 42% | 1009.9 hPa | 0 mm | - | 977 W/m² | - |
| 1778174729 | 17.22° C | 45% | 1010 hPa | 0 mm | - | 907 W/m² | - |
* Rain latest hour (hover to see other rain measurements)
** Current wind speed in m/s (hover to see current wind gust speed)